Time,TemperatureF,DewpointF,PressureIn,WindDirection,WindDirectionDegrees,WindSpeedMPH,WindSpeedGustMPH,Humidity,HourlyPrecipIn,Conditions,Clouds,dailyrainin,SoftwareType,DateUTC
2013-05-09 00:02:00,74.7,25.5,25.31,West,259,15.4,15.4,16,0.00,,---,0.00,VWS V14.00,2013-05-09 07:02:00,
2013-05-09 00:07:00,74.7,25.5,25.31,West,261,13.2,13.2,16,0.00,,---,0.00,VWS V14.00,2013-05-09 07:07:00,
2013-05-09 00:12:00,74.7,25.5,25.31,WSW,244,13.2,23.3,16,0.00,,---,0.00,VWS V14.00,2013-05-09 07:12:00,
2013-05-09 00:17:00,74.7,25.5,25.31,SW,235,19.2,25.1,16,0.00,,---,0.00,VWS V14.00,2013-05-09 07:17:00,
2013-05-09 00:22:00,74.7,25.5,25.31,WSW,251,17.9,23.3,16,0.00,,---,0.00,VWS V14.00,2013-05-09 07:22:00,
2013-05-09 00:27:00,74.7,25.5,25.31,West,265,14.1,23.3,16,0.00,,---,0.00,VWS V14.00,2013-05-09 07:27:00,
2013-05-09 00:32:00,74.7,25.5,25.31,WSW,238,20.6,20.6,16,0.00,,---,0.00,VWS V14.00,2013-05-09 07:32:00,
2013-05-09 00:37:00,74.7,25.5,25.31,SW,228,15.0,19.7,16,0.00,,---,0.00,VWS V14.00,2013-05-09 07:37:00,
2013-05-09 00:42:00,74.7,25.5,25.31,WSW,244,19.2,19.2,16,0.00,,---,0.00,VWS V14.00,2013-05-09 07:42:00,
2013-05-09 00:47:00,74.7,25.5,25.31,WSW,250,25.1,25.1,16,0.00,,---,0.00,VWS V14.00,2013-05-09 07:47:00,
2013-05-09 00:52:00,74.7,25.5,25.31,WSW,240,20.6,22.8,16,0.00,,---,0.00,VWS V14.00,2013-05-09 07:52:00,
2013-05-09 00:57:00,74.7,25.5,25.31,SW,226,25.1,25.1,16,0.00,,---,0.00,VWS V14.00,2013-05-09 07:57:00,
2013-05-09 01:02:00,74.7,25.5,25.31,West,261,15.4,17.4,16,0.00,,---,0.00,VWS V14.00,2013-05-09 08:02:00,
2013-05-09 01:07:00,74.7,25.5,25.31,West,275,15.4,23.3,16,0.00,,---,0.00,VWS V14.00,2013-05-09 08:07:00,
2013-05-09 01:12:00,74.7,25.5,25.31,SW,223,15.4,17.0,16,0.00,,---,0.00,VWS V14.00,2013-05-09 08:12:00,
2013-05-09 01:17:00,74.7,25.5,25.31,WSW,252,19.2,19.2,16,0.00,,---,0.00,VWS V14.00,2013-05-09 08:17:00,
2013-05-09 01:22:00,74.7,25.5,25.31,West,263,18.8,18.8,16,0.00,,---,0.00,VWS V14.00,2013-05-09 08:22:00,
2013-05-09 01:27:00,74.7,25.5,25.31,West,262,12.8,17.9,16,0.00,,---,0.00,VWS V14.00,2013-05-09 08:27:00,
2013-05-09 01:32:00,74.7,25.5,25.31,West,262,17.4,21.5,16,0.00,,---,0.00,VWS V14.00,2013-05-09 08:32:00,
2013-05-09 01:37:00,74.7,25.5,25.31,WSW,257,15.4,21.0,16,0.00,,---,0.00,VWS V14.00,2013-05-09 08:37:00,
2013-05-09 01:42:00,74.7,25.5,25.31,West,262,17.0,17.0,16,0.00,,---,0.00,VWS V14.00,2013-05-09 08:42:00,
2013-05-09 01:47:00,74.7,25.5,25.31,West,259,15.4,17.0,16,0.00,,---,0.00,VWS V14.00,2013-05-09 08:47:00,
2013-05-09 01:52:00,74.7,25.5,25.31,WSW,250,12.8,16.3,16,0.00,,---,0.00,VWS V14.00,2013-05-09 08:52:00,
2013-05-09 01:57:00,74.7,25.5,25.31,West,270,7.6,15.4,16,0.00,,---,0.00,VWS V14.00,2013-05-09 08:57:00,
2013-05-09 02:02:00,74.7,25.5,25.31,SW,228,14.1,16.3,16,0.00,,---,0.00,VWS V14.00,2013-05-09 09:02:00,
2013-05-09 02:08:00,74.7,25.5,25.31,WSW,248,13.2,17.0,16,0.00,,---,0.00,VWS V14.00,2013-05-09 09:08:00,
2013-05-09 02:13:00,74.7,25.5,25.31,WSW,254,13.6,15.0,16,0.00,,---,0.00,VWS V14.00,2013-05-09 09:13:00,
2013-05-09 02:18:00,74.7,25.5,25.31,WSW,240,11.0,11.0,16,0.00,,---,0.00,VWS V14.00,2013-05-09 09:18:00,
2013-05-09 02:23:00,74.7,25.5,25.31,WSW,244,10.5,15.0,16,0.00,,---,0.00,VWS V14.00,2013-05-09 09:23:00,
2013-05-09 02:28:00,74.7,25.5,25.31,WSW,248,12.8,13.2,16,0.00,,---,0.00,VWS V14.00,2013-05-09 09:28:00,
2013-05-09 02:33:00,74.7,25.5,25.31,SW,228,8.3,14.5,16,0.00,,---,0.00,VWS V14.00,2013-05-09 09:33:00,
2013-05-09 02:38:00,74.7,25.5,25.31,WSW,241,16.3,16.3,16,0.00,,---,0.00,VWS V14.00,2013-05-09 09:38:00,
2013-05-09 02:43:00,74.7,25.5,25.31,WSW,257,12.3,13.2,16,0.00,,---,0.00,VWS V14.00,2013-05-09 09:43:00,
2013-05-09 02:48:00,74.7,25.5,25.31,West,277,9.2,10.5,16,0.00,,---,0.00,VWS V14.00,2013-05-09 09:48:00,
2013-05-09 02:53:00,74.7,25.5,25.31,WSW,240,10.1,10.1,16,0.00,,---,0.00,VWS V14.00,2013-05-09 09:53:00,
2013-05-09 02:58:00,74.7,25.5,25.31,WSW,246,12.3,15.0,16,0.00,,---,0.00,VWS V14.00,2013-05-09 09:58:00,
2013-05-09 03:10:00,74.7,25.5,25.31,WSW,243,8.7,12.3,16,0.00,,---,0.00,VWS V14.00,2013-05-09 10:10:00,
2013-05-09 03:15:00,74.7,25.5,25.31,West,263,13.2,13.2,16,0.00,,---,0.00,VWS V14.00,2013-05-09 10:15:00,
2013-05-09 03:20:00,74.7,25.5,25.31,WSW,257,7.6,10.5,16,0.00,,---,0.00,VWS V14.00,2013-05-09 10:20:00,
2013-05-09 03:25:00,74.7,25.5,25.31,West,261,8.3,8.3,16,0.00,,---,0.00,VWS V14.00,2013-05-09 10:25:00,
2013-05-09 03:30:00,74.7,25.5,25.31,WSW,249,5.8,8.1,16,0.00,,---,0.00,VWS V14.00,2013-05-09 10:30:00,
2013-05-09 03:35:00,74.7,25.5,25.31,SW,236,3.6,5.4,16,0.00,,---,0.00,VWS V14.00,2013-05-09 10:35:00,
2013-05-09 03:40:00,74.7,25.5,25.31,WSW,243,2.7,4.0,16,0.00,,---,0.00,VWS V14.00,2013-05-09 10:40:00,
2013-05-09 03:45:00,74.7,25.5,25.31,NW,305,6.3,6.3,16,0.00,,---,0.00,VWS V14.00,2013-05-09 10:45:00,
2013-05-09 03:50:00,74.7,25.5,25.31,WNW,292,8.7,10.5,16,0.00,,---,0.00,VWS V14.00,2013-05-09 10:50:00,
2013-05-09 03:55:00,74.7,25.5,25.31,West,281,6.3,8.1,16,0.00,,---,0.00,VWS V14.00,2013-05-09 10:55:00,
2013-05-09 04:00:00,74.7,25.5,25.31,West,278,5.8,7.6,16,0.00,,---,0.00,VWS V14.00,2013-05-09 11:00:00,
2013-05-09 04:05:00,74.7,25.5,25.31,West,262,3.6,3.6,16,0.00,,---,0.00,VWS V14.00,2013-05-09 11:05:00,
2013-05-09 04:10:00,74.7,25.5,25.31,WNW,289,4.0,5.4,16,0.00,,---,0.00,VWS V14.00,2013-05-09 11:10:00,
2013-05-09 04:15:00,74.7,25.5,25.31,WSW,249,5.4,8.7,16,0.00,,---,0.00,VWS V14.00,2013-05-09 11:15:00,
2013-05-09 04:20:00,74.7,25.5,25.31,West,276,8.3,9.2,16,0.00,,---,0.00,VWS V14.00,2013-05-09 11:20:00,
2013-05-09 04:25:00,74.7,25.5,25.31,West,278,6.3,7.6,16,0.00,,---,0.00,VWS V14.00,2013-05-09 11:25:00,
2013-05-09 04:30:00,74.7,25.5,25.31,West,272,8.3,8.7,16,0.00,,---,0.00,VWS V14.00,2013-05-09 11:30:00,
2013-05-09 04:35:00,74.7,25.5,25.31,West,274,8.3,10.5,16,0.00,,---,0.00,VWS V14.00,2013-05-09 11:35:00,
2013-05-09 04:40:00,74.7,25.5,25.31,West,271,11.0,11.0,16,0.00,,---,0.00,VWS V14.00,2013-05-09 11:40:00,
2013-05-09 04:45:00,74.7,25.5,25.31,West,265,7.6,7.6,16,0.00,,---,0.00,VWS V14.00,2013-05-09 11:45:00,
2013-05-09 04:50:00,74.7,25.5,25.31,WSW,245,0.0,0.0,16,0.00,,---,0.00,VWS V14.00,2013-05-09 11:50:00,
2013-05-09 04:55:00,74.7,25.5,25.31,South,186,0.0,0.0,16,0.00,,---,0.00,VWS V14.00,2013-05-09 11:55:00,
2013-05-09 05:00:00,74.7,25.5,25.31,WSW,246,0.0,2.2,16,0.00,,---,0.00,VWS V14.00,2013-05-09 12:00:00,
2013-05-09 05:05:00,74.7,25.5,25.31,WSW,245,2.2,2.2,16,0.00,,---,0.00,VWS V14.00,2013-05-09 12:05:00,
2013-05-09 05:11:00,74.7,25.5,25.31,WSW,245,0.0,0.0,16,0.00,,---,0.00,VWS V14.00,2013-05-09 12:11:00,
2013-05-09 05:16:00,74.7,25.5,25.31,WSW,245,0.0,0.0,16,0.00,,---,0.00,VWS V14.00,2013-05-09 12:16:00,
2013-05-09 05:21:00,74.7,25.5,25.31,WSW,245,0.0,0.0,16,0.00,,---,0.00,VWS V14.00,2013-05-09 12:21:00,
2013-05-09 05:26:00,74.7,25.5,25.31,West,273,4.0,4.0,16,0.00,,---,0.00,VWS V14.00,2013-05-09 12:26:00,
2013-05-09 05:31:00,74.7,25.5,25.31,West,273,3.6,4.0,16,0.00,,---,0.00,VWS V14.00,2013-05-09 12:31:00,
2013-05-09 05:36:00,74.7,25.5,25.31,West,267,4.0,4.5,16,0.00,,---,0.00,VWS V14.00,2013-05-09 12:36:00,
2013-05-09 05:41:00,74.7,25.5,25.31,WSW,256,4.0,4.0,16,0.00,,---,0.00,VWS V14.00,2013-05-09 12:41:00,
2013-05-09 05:46:00,74.7,25.5,25.31,WSW,256,3.6,4.0,16,0.00,,---,0.00,VWS V14.00,2013-05-09 12:46:00,
2013-05-09 05:51:00,74.7,25.5,25.31,WSW,256,5.8,5.8,16,0.00,,---,0.00,VWS V14.00,2013-05-09 12:51:00,
2013-05-09 05:56:00,74.7,25.5,25.31,West,261,4.0,4.9,16,0.00,,---,0.00,VWS V14.00,2013-05-09 12:56:00,
2013-05-09 06:01:00,74.7,25.5,25.31,WSW,258,5.4,6.3,16,0.00,,---,0.00,VWS V14.00,2013-05-09 13:01:00,
2013-05-09 06:06:00,74.7,25.5,25.31,WSW,256,7.6,7.6,16,0.00,,---,0.00,VWS V14.00,2013-05-09 13:06:00,
2013-05-09 06:11:00,74.7,25.5,25.31,West,266,6.3,6.3,16,0.00,,---,0.00,VWS V14.00,2013-05-09 13:11:00,
2013-05-09 06:16:00,74.7,25.5,25.34,West,268,5.4,5.4,16,0.00,,---,0.00,VWS V14.00,2013-05-09 13:16:00,
2013-05-09 06:21:00,74.7,25.5,25.34,West,271,4.9,4.9,16,0.00,,---,0.00,VWS V14.00,2013-05-09 13:21:00,
2013-05-09 06:26:00,74.7,25.5,25.34,West,266,5.4,6.3,16,0.00,,---,0.00,VWS V14.00,2013-05-09 13:26:00,
2013-05-09 06:31:00,74.7,25.5,25.34,West,275,4.0,4.0,16,0.00,,---,0.00,VWS V14.00,2013-05-09 13:31:00,
2013-05-09 06:36:00,74.7,25.5,25.34,WNW,285,3.1,3.1,16,0.00,,---,0.00,VWS V14.00,2013-05-09 13:36:00,
2013-05-09 06:41:00,74.7,25.5,25.34,WNW,289,4.9,5.4,16,0.00,,---,0.00,VWS V14.00,2013-05-09 13:41:00,
2013-05-09 06:46:00,74.7,25.5,25.34,NNE,26,0.0,0.0,16,0.00,,---,0.00,VWS V14.00,2013-05-09 13:46:00,
2013-05-09 06:51:00,74.7,25.5,25.34,NE,39,4.0,4.0,16,0.00,,---,0.00,VWS V14.00,2013-05-09 13:51:00,
2013-05-09 06:56:00,74.7,25.5,25.34,NNE,26,2.2,3.1,16,0.00,,---,0.00,VWS V14.00,2013-05-09 13:56:00,
2013-05-09 07:01:00,74.7,25.5,25.34,NE,40,0.0,0.0,16,0.00,,---,0.00,VWS V14.00,2013-05-09 14:01:00,
2013-05-09 07:06:00,74.7,25.5,25.34,East,96,3.6,4.0,16,0.00,,---,0.00,VWS V14.00,2013-05-09 14:06:00,
2013-05-09 07:11:00,74.7,25.5,25.34,NE,46,2.2,4.0,16,0.00,,---,0.00,VWS V14.00,2013-05-09 14:11:00,
2013-05-09 07:16:00,74.7,25.5,25.34,NE,52,0.0,0.0,16,0.00,,---,0.00,VWS V14.00,2013-05-09 14:16:00,
2013-05-09 07:21:00,74.7,25.5,25.34,NE,54,0.0,0.0,16,0.00,,---,0.00,VWS V14.00,2013-05-09 14:21:00,
2013-05-09 07:26:00,74.7,25.5,25.34,NE,38,3.6,4.9,16,0.00,,---,0.00,VWS V14.00,2013-05-09 14:26:00,
2013-05-09 07:31:00,74.7,25.5,25.34,NE,34,2.7,4.0,16,0.00,,---,0.00,VWS V14.00,2013-05-09 14:31:00,
2013-05-09 07:36:00,74.7,25.5,25.34,NE,34,2.2,3.6,16,0.00,,---,0.00,VWS V14.00,2013-05-09 14:36:00,
2013-05-09 07:41:00,74.7,25.5,25.34,NNE,28,0.0,0.0,16,0.00,,---,0.00,VWS V14.00,2013-05-09 14:41:00,
2013-05-09 07:46:00,74.7,25.5,25.34,NE,49,0.0,0.0,16,0.00,,---,0.00,VWS V14.00,2013-05-09 14:46:00,
2013-05-09 07:51:00,74.7,25.5,25.34,NE,40,0.0,0.0,16,0.00,,---,0.00,VWS V14.00,2013-05-09 14:51:00,
2013-05-09 07:56:00,74.7,25.5,25.34,NNE,30,4.0,4.0,16,0.00,,---,0.00,VWS V14.00,2013-05-09 14:56:00,
2013-05-09 08:01:00,74.7,25.5,25.34,ESE,105,0.0,0.0,16,0.00,,---,0.00,VWS V14.00,2013-05-09 15:01:00,
2013-05-09 08:06:00,74.7,25.5,25.34,NE,46,4.0,4.0,16,0.00,,---,0.00,VWS V14.00,2013-05-09 15:06:00,
2013-05-09 08:11:00,74.7,25.5,25.34,NNE,33,4.9,4.9,16,0.00,,---,0.00,VWS V14.00,2013-05-09 15:11:00,
2013-05-09 08:16:00,74.7,25.5,25.34,NE,49,4.0,4.0,16,0.00,,---,0.00,VWS V14.00,2013-05-09 15:16:00,
2013-05-09 08:21:00,74.7,25.5,25.34,NNE,28,0.0,0.0,16,0.00,,---,0.00,VWS V14.00,2013-05-09 15:21:00,
2013-05-09 08:26:00,74.7,25.5,25.34,ENE,64,4.9,5.4,16,0.00,,---,0.00,VWS V14.00,2013-05-09 15:26:00,
2013-05-09 08:31:00,74.7,25.5,25.34,East,95,0.0,0.0,16,0.00,,---,0.00,VWS V14.00,2013-05-09 15:31:00,
2013-05-09 08:36:00,74.7,25.5,25.34,ENE,76,2.7,2.7,16,0.00,,---,0.00,VWS V14.00,2013-05-09 15:36:00,
2013-05-09 08:41:00,74.7,25.5,25.34,East,101,7.6,7.6,16,0.00,,---,0.00,VWS V14.00,2013-05-09 15:41:00,
2013-05-09 08:46:00,74.7,25.5,25.34,ENE,71,0.0,3.1,16,0.00,,---,0.00,VWS V14.00,2013-05-09 15:46:00,
2013-05-09 08:51:00,74.7,25.5,25.34,ENE,62,6.7,7.2,16,0.00,,---,0.00,VWS V14.00,2013-05-09 15:51:00,
2013-05-09 08:56:00,74.7,25.5,25.34,ESE,111,7.2,8.1,16,0.00,,---,0.00,VWS V14.00,2013-05-09 15:56:00,
2013-05-09 09:01:00,74.7,25.5,25.34,NE,40,6.3,6.3,16,0.00,,---,0.00,VWS V14.00,2013-05-09 16:01:00,
2013-05-09 09:06:00,74.7,25.5,25.34,East,87,5.8,5.8,16,0.00,,---,0.00,VWS V14.00,2013-05-09 16:06:00,
2013-05-09 09:11:00,74.7,25.5,25.34,SE,125,7.6,7.6,16,0.00,,---,0.00,VWS V14.00,2013-05-09 16:11:00,
2013-05-09 09:16:00,74.7,25.5,25.34,South,169,4.9,8.7,16,0.00,,---,0.00,VWS V14.00,2013-05-09 16:16:00,
2013-05-09 09:21:00,74.7,25.5,25.34,SE,127,4.0,4.0,16,0.00,,---,0.00,VWS V14.00,2013-05-09 16:21:00,
2013-05-09 09:27:00,74.7,25.5,25.34,ESE,104,3.1,5.8,16,0.00,,---,0.00,VWS V14.00,2013-05-09 16:27:00,
2013-05-09 09:32:00,74.7,25.5,25.34,SE,133,4.9,8.3,16,0.00,,---,0.00,VWS V14.00,2013-05-09 16:32:00,
2013-05-09 09:37:00,74.7,25.5,25.34,NNE,31,4.0,5.8,16,0.00,,---,0.00,VWS V14.00,2013-05-09 16:37:00,
2013-05-09 09:42:00,74.7,25.5,25.34,NE,49,9.6,9.6,16,0.00,,---,0.00,VWS V14.00,2013-05-09 16:42:00,
2013-05-09 09:47:00,74.7,25.5,25.34,NE,41,5.8,6.3,16,0.00,,---,0.00,VWS V14.00,2013-05-09 16:47:00,
2013-05-09 09:52:00,74.7,25.5,25.34,East,83,2.7,6.3,16,0.00,,---,0.00,VWS V14.00,2013-05-09 16:52:00,
2013-05-09 09:57:00,74.7,25.5,25.34,NNE,24,7.6,7.6,16,0.00,,---,0.00,VWS V14.00,2013-05-09 16:57:00,
2013-05-09 10:02:00,74.7,25.5,25.34,East,99,2.7,5.8,16,0.00,,---,0.00,VWS V14.00,2013-05-09 17:02:00,
2013-05-09 10:07:00,74.7,25.5,25.34,NE,53,0.0,0.0,16,0.00,,---,0.00,VWS V14.00,2013-05-09 17:07:00,
2013-05-09 10:12:00,74.7,25.5,25.34,SE,141,5.8,10.5,16,0.00,,---,0.00,VWS V14.00,2013-05-09 17:12:00,
2013-05-09 10:17:00,74.7,25.5,25.34,SSW,205,2.7,8.1,16,0.00,,---,0.00,VWS V14.00,2013-05-09 17:17:00,
2013-05-09 10:22:00,74.7,25.5,25.34,SSE,160,6.3,8.1,16,0.00,,---,0.00,VWS V14.00,2013-05-09 17:22:00,
2013-05-09 10:27:00,74.7,25.5,25.34,ESE,118,10.1,10.1,16,0.00,,---,0.00,VWS V14.00,2013-05-09 17:27:00,
2013-05-09 10:32:00,74.7,25.5,25.34,South,172,5.4,5.4,16,0.00,,---,0.00,VWS V14.00,2013-05-09 17:32:00,
2013-05-09 10:37:00,74.7,25.5,25.34,SSE,167,0.0,6.3,16,0.00,,---,0.00,VWS V14.00,2013-05-09 17:37:00,
2013-05-09 10:42:00,74.7,25.5,25.34,East,81,5.4,5.4,16,0.00,,---,0.00,VWS V14.00,2013-05-09 17:42:00,
2013-05-09 10:47:00,74.7,25.5,25.34,NE,42,0.0,0.0,16,0.00,,---,0.00,VWS V14.00,2013-05-09 17:47:00,
2013-05-09 10:52:00,74.7,25.5,25.34,SE,133,6.3,6.3,16,0.00,,---,0.00,VWS V14.00,2013-05-09 17:52:00,
2013-05-09 10:57:00,74.7,25.5,25.31,ESE,111,0.0,0.0,16,0.00,,---,0.00,VWS V14.00,2013-05-09 17:57:00,
2013-05-09 11:02:00,74.7,25.5,25.31,NE,35,3.6,3.6,16,0.00,,---,0.00,VWS V14.00,2013-05-09 18:02:00,
2013-05-09 11:07:00,74.7,25.5,25.31,South,172,5.8,6.7,16,0.00,,---,0.00,VWS V14.00,2013-05-09 18:07:00,
2013-05-09 11:12:00,74.7,25.5,25.31,SSW,210,2.2,3.1,16,0.00,,---,0.00,VWS V14.00,2013-05-09 18:12:00,
2013-05-09 11:17:00,74.7,25.5,25.31,ENE,70,6.3,6.3,16,0.00,,---,0.00,VWS V14.00,2013-05-09 18:17:00,
2013-05-09 11:22:00,74.7,25.5,25.31,WSW,256,5.8,5.8,16,0.00,,---,0.00,VWS V14.00,2013-05-09 18:22:00,
2013-05-09 11:27:00,74.7,25.5,25.31,SE,145,0.0,0.0,16,0.00,,---,0.00,VWS V14.00,2013-05-09 18:27:00,
2013-05-09 11:32:00,74.7,25.5,25.31,ESE,118,8.1,8.1,16,0.00,,---,0.00,VWS V14.00,2013-05-09 18:32:00,
2013-05-09 11:37:00,74.7,25.5,25.31,SSE,158,8.1,8.1,16,0.00,,---,0.00,VWS V14.00,2013-05-09 18:37:00,
2013-05-09 11:42:00,74.7,25.5,25.31,SE,138,6.7,6.7,16,0.00,,---,0.00,VWS V14.00,2013-05-09 18:42:00,
2013-05-09 11:47:00,74.7,25.5,25.31,ENE,59,3.1,4.9,16,0.00,,---,0.00,VWS V14.00,2013-05-09 18:47:00,
2013-05-09 11:52:00,74.7,25.5,25.31,SE,146,2.7,3.1,16,0.00,,---,0.00,VWS V14.00,2013-05-09 18:52:00,
2013-05-09 11:57:00,74.7,25.5,25.31,SE,141,0.0,0.0,16,0.00,,---,0.00,VWS V14.00,2013-05-09 18:57:00,
2013-05-09 12:02:00,74.7,25.5,25.31,SE,131,5.8,6.3,16,0.00,,---,0.00,VWS V14.00,2013-05-09 19:02:00,
2013-05-09 12:07:00,74.7,25.5,25.31,South,180,0.0,5.4,16,0.00,,---,0.00,VWS V14.00,2013-05-09 19:07:00,
2013-05-09 12:12:00,74.7,25.5,25.31,NE,43,4.5,4.5,16,0.00,,---,0.00,VWS V14.00,2013-05-09 19:12:00,
2013-05-09 12:17:00,74.7,25.5,25.31,NNW,344,7.6,8.1,16,0.00,,---,0.00,VWS V14.00,2013-05-09 19:17:00,
2013-05-09 12:22:00,74.7,25.5,25.31,North,357,4.9,4.9,16,0.00,,---,0.00,VWS V14.00,2013-05-09 19:22:00,
2013-05-09 12:27:00,74.7,25.5,25.31,NNE,17,0.0,2.2,16,0.00,,---,0.00,VWS V14.00,2013-05-09 19:27:00,
2013-05-09 12:32:00,74.7,25.5,25.31,NNW,331,0.0,0.0,16,0.00,,---,0.00,VWS V14.00,2013-05-09 19:32:00,
2013-05-09 12:37:00,74.7,25.5,25.31,NNW,335,5.4,5.4,16,0.00,,---,0.00,VWS V14.00,2013-05-09 19:37:00,
2013-05-09 12:42:00,74.7,25.5,25.31,NNE,13,0.0,4.0,16,0.00,,---,0.00,VWS V14.00,2013-05-09 19:42:00,
2013-05-09 12:47:00,74.7,25.5,25.31,NE,36,4.0,5.8,16,0.00,,---,0.00,VWS V14.00,2013-05-09 19:47:00,
2013-05-09 12:52:00,74.7,25.5,25.31,ENE,72,2.7,4.0,16,0.00,,---,0.00,VWS V14.00,2013-05-09 19:52:00,
2013-05-09 12:57:00,74.7,25.5,25.28,NNE,31,2.7,4.0,16,0.00,,---,0.00,VWS V14.00,2013-05-09 19:57:00,
2013-05-09 13:02:00,74.7,25.5,25.28,NE,39,0.0,4.0,16,0.00,,---,0.00,VWS V14.00,2013-05-09 20:02:00,
2013-05-09 13:08:00,74.7,25.5,25.28,WSW,237,5.4,10.1,16,0.00,,---,0.00,VWS V14.00,2013-05-09 20:08:00,
2013-05-09 13:13:00,74.7,25.5,25.31,SE,142,8.7,11.0,16,0.00,,---,0.00,VWS V14.00,2013-05-09 20:13:00,
2013-05-09 13:18:00,74.7,25.5,25.31,South,191,4.0,7.6,16,0.00,,---,0.00,VWS V14.00,2013-05-09 20:18:00,
2013-05-09 13:23:00,74.7,25.5,25.31,SW,218,3.6,6.3,16,0.00,,---,0.00,VWS V14.00,2013-05-09 20:23:00,
2013-05-09 13:28:00,74.7,25.5,25.28,West,270,12.8,12.8,16,0.00,,---,0.00,VWS V14.00,2013-05-09 20:28:00,